Tracking 19794 objects as of 21-Jul-2019
HD Live streaming from Space Station
objects crossing your sky now

CZ-2C R/B

Track CZ-2C R/B now!
10-day predictions


NORAD ID: 37731
Int'l Code: 2011-030B
Perigee: 612.9 km
Apogee: 694.6 km
Inclination: 97.7 °
Period: 97.7 minutes
Semi major axis: 7024 km
RCS: 8.527 m2 (large)
Launch date: July 6, 2011
Source: People's Republic of China (PRC)
Launch site: Jiuquan Satellite Launch Center, China (JSC)

Note: This is a ROCKET BODY
aabbcc
Your satellite tracking list
Your tracking list is empty




NASA's NSSDC Master Catalog

Two Line Element Set (TLE):
1 37731U 11030B   19201.95077472 +.00000004 +00000-0 +79736-5 0  9991
2 37731 097.6752 230.2816 0058125 289.1978 134.3686 14.74543283432467
Source of the keplerian elements: AFSPC